Regional Weather Roundup
Issued by NWS

Home | Current Version | Previous Version | Graphics & Text | Print | Product List | Glossary On
Versions: 1 2 3 4 5 6 7 8 9 10 11 12 13 14 15 16 17 18 19 20 21 22 23 24 25 26 27 28 29 30 31 32 33 34 35 36 37 38 39 40 41 42 43 44 45 46 47 48 49 50
000
ASUS45 KCYS 291910
RWRWY

WYOMING REGIONAL WEATHER ROUNDUP
NATIONAL WEATHER SERVICE CHEYENNE WY
100 PM MDT FRI AUG 29 2014

NOTE:  "FAIR" INDICATES FEW OR NO CLOUDS BELOW 12,000 FEET
WITH NO SIGNIFICANT WEATHER AND/OR OBSTRUCTIONS TO VISIBILITY.

WYZ001-292000-
YELLOWSTONE NATIONAL PARK

CITY           SKY/WX    TMP DP  RH WIND       PRES   REMARKS
LK YELLOWSTONE   N/A     60  48  64 E3        30.28F
W YELLOWSTONE  NOT AVBL

$$
WYZ002>013-054>058-071-098>099-292000-
NORTHERN WYOMING

CITY           SKY/WX    TMP DP  RH WIND       PRES   REMARKS
JACKSON        MOSUNNY   72  46  40 SE7       30.19F
CODY           MOSUNNY   72  50  46 E6        30.09F
GREYBULL       SUNNY     75  49  39 E7        30.05F
WORLAND        SUNNY     75  46  35 E3        30.06F
SHERIDAN       MOSUNNY   71  52  50 CALM      30.07F
BUFFALO        MOSUNNY   67  52  58 VRB3      30.12F
GILLETTE       MOSUNNY   72  53  51 W9        30.08F
HULETT         MOCLDY    70  52  52 MISG      30.08
NEWCASTLE      FAIR      72  46  40 NW15G22   30.05

$$
WYZ014>020-022>026-101>103-292000-
CENTRAL WYOMING

CITY           SKY/WX    TMP DP  RH WIND       PRES   REMARKS
BIG PINEY      SUNNY     70  40  33 VRB3      30.24F
PINEDALE       PTCLDY    70  37  30 NW5       30.24F
DUBOIS         FAIR      70  36  28 CALM      30.21F
LANDER         SUNNY     77  45  32 E8        30.11F
RIVERTON       SUNNY     73  42  32 VRB5      30.14F
CASPER         SUNNY     74  43  32 VRB5      30.12F
DOUGLAS        SUNNY     75  47  36 W12       30.11F

$$
WYZ021-027>030-104>119-292000-
SOUTHERN WYOMING

CITY           SKY/WX    TMP DP  RH WIND       PRES   REMARKS
EVANSTON       SUNNY     73  40  30 S7        30.26F
KEMMERER       PTCLDY    72  37  28 W13       30.27F
FORT BRIDGER   MOCLDY    76  40  26 W13G20    30.28F
ROCK SPRINGS   SUNNY     74  38  27 W15G22    30.22F
DIXON          FAIR      71  47  42 W7        30.25F
RAWLINS        SUNNY     72  42  34 W9G18     30.22F
SARATOGA       FAIR      68  46  45 N6        30.24F
LARAMIE        MOSUNNY   68  44  42 N8        30.23F
CHEYENNE       SUNNY     73  45  36 N12G18    30.15F
TORRINGTON     MOSUNNY   77  52  41 VRB7      30.05S
PINE BLUFFS    FAIR      72  48  43 N15       30.11F

$$



USA.gov is the U.S. government's official web portal to all federal, state and local government web resources and services.